Weather in Pudozhgorskiy

Russia / Republic of Karelia     62°19′01″N   35°55′51″E
temp.,
°C
wind,
m/s
gust,
m/s
humid.,
%
clouds,
%
prec.,
mm/h
press.,
hPa
HPBL,
m
4 march, thu
thu400:00−3nw51196100 1.4 993629
03:00−4n51092100 3.2 995714
06:00−10nnw379685 0.1 997200
09:00−11nw379782 0.1 998222
12:00−8nw369590 0.0 998282
15:00−6nw369495 0.1 998423
18:00−7nw4894100 0.2 999394
21:00−9nnw379596 0.3 999196
5 march, fri
fri500:00−11nnw399295 0.0 1001333
03:00−16nnw239558 0.0 100383
06:00−18nnw25970 0.0 100593
09:00−16nnw259626 0.0 1006172
12:00−12nw249298 0.1 1008332
15:00−10nw359199 0.2 1010501
18:00−13nw2592100 0.1 1011112
21:00−16nw239581 0.1 101321
6 march, sat
sat600:00−17nw129966 0.0 101420
03:00−17w129979 0.0 101420
06:00−17sw239546 0.0 101421
09:00−14sw369664 0.0 1012198
12:00−11ssw479499 0.0 1010324
15:00−8s5109195 0.1 1007539
18:00−8s61389100 0.1 1001865
21:00−7s81593100 1.4 9951047
7 march, sun
sun700:00−6s81593100 1.9 989913
03:00−4s61295100 4.4 986668
06:00−9nw51194100 2.8 986560
09:00−11wnw3888100 3.1 987410
12:00−11nw358598 0.0 989283
15:00−11wnw368898 0.0 990305
18:00−11nw51093100 0.2 991449
21:00−9nne51191100 1.1 993643
8 march, mon
mon800:00−11nne51291100 0.3 995634
03:00−12nne51290100 0.4 998781
06:00−13nne61290100 0.3 1001727
09:00−16n51189100 0.3 1004558
12:00−15n51189100 0.0 1007528
15:00−14n51087100 0.0 1010589
18:00−17n4119190 0.0 1013423
21:00−20n4109270 0.0 1016320